| time (UTC) | temp F | wind direction | speed knots | gust knots | rain 1hr in | rain 24hr in | rain mn in | humidity % | barometer mb |
| 20260905204944 | 97 | 337 | 0.9 | 2.6 | 0.00 | 0.00 | 0.00 | 45 | 1010.9 |
| 20260905204442 | 96 | 83 | 0.9 | 1.7 | 0.00 | 0.00 | 0.00 | 48 | 1011.0 |
| 20260905203945 | 96 | 238 | 0.9 | 1.7 | 0.00 | 0.00 | 0.00 | 48 | 1011.1 |
| 20260905203436 | 96 | 82 | 0.9 | 5.2 | 0.00 | 0.00 | 0.00 | 46 | 1011.1 |
| 20260905202937 | 98 | 339 | 0.9 | 5.2 | 0.00 | 0.00 | 0.00 | 44 | 1011.2 |
| 20260905201938 | 98 | 23 | 1.7 | 5.2 | 0.00 | 0.00 | 0.00 | 45 | 1011.3 |
| 20260905201437 | 98 | 312 | 1.7 | 5.2 | 0.00 | 0.00 | 0.00 | 42 | 1011.4 |
| 20260905200936 | 97 | 329 | 0.9 | 5.2 | 0.00 | 0.00 | 0.00 | 45 | 1011.4 |
| 20260905200703 | 96 | 333 | 0.9 | 5.2 | 0.00 | 0.00 | 0.00 | 47 | 1011.5 |
| 20260905195933 | 96 | 333 | 1.7 | 5.2 | 0.00 | 0.00 | 0.00 | 45 | 1011.5 |
| 20260905195435 | 96 | 20 | 1.7 | 3.5 | 0.00 | 0.00 | 0.00 | 46 | 1011.6 |
| 20260905194936 | 96 | 296 | 0.9 | 3.5 | 0.00 | 0.00 | 0.00 | 48 | 1011.6 |
| 20260905194430 | 96 | 353 | 0.9 | 2.6 | 0.00 | 0.00 | 0.00 | 47 | 1011.7 |
| 20260905193928 | 96 | 26 | 0.9 | 2.6 | 0.00 | 0.00 | 0.00 | 47 | 1011.9 |
| 20260905193429 | 96 | 283 | 0.9 | 5.2 | 0.00 | 0.00 | 0.00 | 48 | 1012.0 |
| 20260905192928 | 96 | 296 | 0.9 | 5.2 | 0.00 | 0.00 | 0.00 | 46 | 1012.1 |
| 20260905192430 | 96 | 293 | 0.9 | 5.2 | 0.00 | 0.00 | 0.00 | 44 | 1012.1 |
| 20260905191928 | 96 | 108 | 0.9 | 5.2 | 0.00 | 0.00 | 0.00 | 45 | 1012.0 |
| 20260905191648 | 95 | 253 | 0.9 | 4.3 | 0.00 | 0.00 | 0.00 | 47 | 1012.1 |
| 20260905190924 | 94 | 317 | 0.0 | 1.7 | 0.00 | 0.00 | 0.00 | 50 | 1012.2 |
| 20260905190423 | 93 | 325 | 0.0 | 0.9 | 0.00 | 0.00 | 0.00 | 52 | 1012.3 |
| 20260905190149 | 94 | 325 | 0.9 | 1.7 | 0.00 | 0.00 | 0.00 | 51 | 1012.4 |
| 20260905185416 | 94 | 325 | 0.9 | 3.5 | 0.00 | 0.00 | 0.00 | 49 | 1012.4 |
| 20260905184914 | 95 | 323 | 0.9 | 3.5 | 0.00 | 0.00 | 0.00 | 47 | 1012.5 |
| 20260905183910 | 93 | 286 | 0.0 | 0.9 | 0.00 | 0.00 | 0.00 | 51 | 1012.6 |
| 20260905183409 | 92 | 286 | 0.0 | 0.9 | 0.00 | 0.00 | 0.00 | 51 | 1012.7 |
| 20260905182907 | 93 | 286 | 0.9 | 2.6 | 0.00 | 0.00 | 0.00 | 51 | 1012.8 |
| 20260905182406 | 94 | 286 | 0.9 | 2.6 | 0.00 | 0.00 | 0.00 | 49 | 1012.8 |
| 20260905181905 | 94 | 302 | 0.9 | 6.1 | 0.00 | 0.00 | 0.00 | 48 | 1012.9 |
| 20260905181404 | 94 | 321 | 1.7 | 6.1 | 0.00 | 0.00 | 0.00 | 50 | 1012.8 |
| 20260905180906 | 94 | 0 | 0.9 | 5.2 | 0.00 | 0.00 | 0.00 | 50 | 1012.9 |
| 20260905180620 | 93 | 321 | 0.9 | 2.6 | 0.00 | 0.00 | 0.00 | 54 | 1012.9 |
| 20260905175901 | 93 | 323 | 1.7 | 3.5 | 0.00 | 0.00 | 0.00 | 50 | 1012.9 |
| 20260905175629 | 93 | 288 | 1.7 | 3.5 | 0.00 | 0.00 | 0.00 | 49 | 1013.0 |
| 20260905174858 | 92 | 266 | 1.7 | 5.2 | 0.00 | 0.00 | 0.00 | 53 | 1013.0 |
| 20260905174626 | 92 | 327 | 1.7 | 5.2 | 0.00 | 0.00 | 0.00 | 53 | 1013.1 |
| 20260905173855 | 91 | 296 | 0.9 | 5.2 | 0.00 | 0.00 | 0.00 | 51 | 1013.1 |
| 20260905173615 | 90 | 336 | 0.9 | 1.7 | 0.00 | 0.00 | 0.00 | 53 | 1013.2 |
| 20260905172851 | 90 | 40 | 0.9 | 1.7 | 0.00 | 0.00 | 0.00 | 53 | 1013.3 |
| 20260905172348 | 90 | 38 | 0.9 | 2.6 | 0.00 | 0.00 | 0.00 | 54 | 1013.4 |
| 20260905171618 | 91 | 284 | 0.9 | 2.6 | 0.00 | 0.00 | 0.00 | 52 | 1013.4 |
| 20260905170843 | 91 | 194 | 0.0 | 2.6 | 0.00 | 0.00 | 0.00 | 55 | 1013.3 |
| 20260905170341 | 90 | 169 | 0.0 | 1.7 | 0.00 | 0.00 | 0.00 | 56 | 1013.6 |
| 20260905165840 | 88 | 138 | 0.0 | 1.7 | 0.00 | 0.00 | 0.00 | 59 | 1013.7 |
| 20260905165339 | 88 | 76 | 0.0 | 1.7 | 0.00 | 0.00 | 0.00 | 58 | 1013.9 |
| 20260905164850 | 88 | 240 | 0.0 | 1.7 | 0.00 | 0.00 | 0.00 | 57 | 1014.0 |
| 20260905164330 | 88 | 240 | 0.9 | 2.6 | 0.00 | 0.00 | 0.00 | 58 | 1014.1 |
| 20260905163835 | 88 | 238 | 0.9 | 2.6 | 0.00 | 0.00 | 0.00 | 58 | 1014.2 |
| 20260905163326 | 87 | 242 | 0.0 | 1.7 | 0.00 | 0.00 | 0.00 | 59 | 1014.3 |
| 20260905162827 | 87 | 243 | 0.9 | 2.6 | 0.00 | 0.00 | 0.00 | 61 | 1014.3 |
| 20260905162326 | 86 | 244 | 0.9 | 2.6 | 0.00 | 0.00 | 0.00 | 60 | 1014.4 |
| 20260905161826 | 86 | 224 | 0.9 | 3.5 | 0.00 | 0.00 | 0.00 | 61 | 1014.3 |
| 20260905161323 | 86 | 244 | 0.9 | 3.5 | 0.00 | 0.00 | 0.00 | 62 | 1014.4 |
| 20260905160823 | 85 | 276 | 0.9 | 3.5 | 0.00 | 0.00 | 0.00 | 63 | 1014.3 |
| 20260905160327 | 85 | 226 | 0.0 | 0.9 | 0.00 | 0.00 | 0.00 | 65 | 1014.4 |
| 20260905155822 | 85 | 267 | 0.0 | 1.7 | 0.00 | 0.00 | 0.00 | 65 | 1014.4 |
| 20260905155324 | 84 | 268 | 0.0 | 1.7 | 0.00 | 0.00 | 0.00 | 65 | 1014.3 |
| 20260905154823 | 84 | 270 | 0.0 | 1.7 | 0.00 | 0.00 | 0.00 | 66 | 1014.3 |
| 20260905154323 | 83 | 275 | 0.0 | 1.7 | 0.00 | 0.00 | 0.00 | 65 | 1014.5 |
| 20260905153316 | 83 | 275 | 0.0 | 2.6 | 0.00 | 0.00 | 0.00 | 67 | 1014.6 |
| 20260905152816 | 83 | 281 | 0.0 | 2.6 | 0.00 | 0.00 | 0.00 | 68 | 1014.6 |
| 20260905152313 | 82 | 324 | 0.0 | 2.6 | 0.00 | 0.00 | 0.00 | 68 | 1014.7 |
| 20260905151812 | 82 | 269 | 0.0 | 1.7 | 0.00 | 0.00 | 0.00 | 69 | 1014.6 |
| 20260905151312 | 82 | 348 | 0.0 | 2.6 | 0.00 | 0.00 | 0.00 | 70 | 1014.6 |
| 20260905150814 | 82 | 63 | 0.0 | 2.6 | 0.00 | 0.00 | 0.00 | 71 | 1014.6 |
| 20260905150309 | 81 | 227 | 0.0 | 3.5 | 0.00 | 0.00 | 0.00 | 71 | 1014.8 |
| 20260905145807 | 81 | 227 | 0.0 | 3.5 | 0.00 | 0.00 | 0.00 | 72 | 1014.8 |
| 20260905145307 | 80 | 105 | 0.0 | 1.7 | 0.00 | 0.00 | 0.00 | 73 | 1014.9 |
| 20260905144808 | 80 | 111 | 0.9 | 1.7 | 0.00 | 0.00 | 0.00 | 73 | 1014.9 |
| 20260905144304 | 80 | 227 | 0.0 | 1.7 | 0.00 | 0.00 | 0.00 | 74 | 1015.0 |
| 20260905143800 | 80 | 229 | 0.0 | 1.7 | 0.00 | 0.00 | 0.00 | 74 | 1014.9 |
| 20260905143302 | 80 | 260 | 0.9 | 1.7 | 0.00 | 0.00 | 0.00 | 75 | 1014.9 |
| 20260905142802 | 79 | 260 | 0.9 | 3.5 | 0.00 | 0.00 | 0.00 | 75 | 1014.8 |
| 20260905142305 | 79 | 215 | 0.9 | 3.5 | 0.00 | 0.00 | 0.00 | 77 | 1014.8 |
| 20260905141814 | 79 | 49 | 0.0 | 2.6 | 0.00 | 0.00 | 0.00 | 77 | 1015.0 |
| 20260905141532 | 79 | 47 | 0.0 | 1.7 | 0.00 | 0.00 | 0.00 | 77 | 1015.1 |
| 20260905140801 | 79 | 292 | 0.0 | 1.7 | 0.00 | 0.00 | 0.00 | 78 | 1015.1 |
| 20260905140257 | 78 | 290 | 0.0 | 1.7 | 0.00 | 0.00 | 0.00 | 78 | 1015.1 |
| 20260905140025 | 78 | 53 | 0.0 | 2.6 | 0.00 | 0.00 | 0.00 | 78 | 1015.3 |
| 20260905135511 | 78 | 53 | 0.0 | 2.6 | 0.00 | 0.00 | 0.00 | 79 | 1015.1 |
| 20260905134754 | 78 | 53 | 0.0 | 1.7 | 0.00 | 0.00 | 0.00 | 79 | 1015.2 |
| 20260905134249 | 78 | 53 | 0.0 | 1.7 | 0.00 | 0.00 | 0.00 | 80 | 1015.3 |
| 20260905133749 | 78 | 53 | 0.0 | 1.7 | 0.00 | 0.00 | 0.00 | 80 | 1015.4 |
| 20260905133248 | 78 | 53 | 0.0 | 1.7 | 0.00 | 0.00 | 0.00 | 80 | 1015.4 |
| 20260905133018 | 78 | 53 | 0.0 | 1.7 | 0.00 | 0.00 | 0.00 | 80 | 1015.4 |
| 20260905132248 | 78 | 48 | 0.9 | 1.7 | 0.00 | 0.00 | 0.00 | 81 | 1015.7 |
| 20260905131746 | 78 | 302 | 0.0 | 1.7 | 0.00 | 0.00 | 0.00 | 83 | 1015.7 |
| 20260905131246 | 78 | 312 | 0.0 | 0.0 | 0.00 | 0.00 | 0.00 | 85 | 1015.6 |
| 20260905130746 | 78 | 312 | 0.0 | 0.0 | 0.00 | 0.00 | 0.00 | 86 | 1015.9 |
| 20260905130243 | 78 | 312 | 0.0 | 0.0 | 0.00 | 0.00 | 0.00 | 86 | 1015.8 |
| 20260905125743 | 78 | 312 | 0.0 | 0.0 | 0.00 | 0.00 | 0.00 | 87 | 1015.5 |
| 20260905125241 | 78 | 312 | 0.0 | 0.0 | 0.00 | 0.00 | 0.00 | 87 | 1015.2 |
| 20260905124740 | 78 | 312 | 0.0 | 0.0 | 0.00 | 0.00 | 0.00 | 87 | 1014.8 |
| 20260905123739 | 77 | 312 | 0.0 | 0.0 | 0.00 | 0.00 | 0.00 | 87 | 1014.6 |
| 20260905123238 | 77 | 312 | 0.0 | 0.0 | 0.00 | 0.00 | 0.00 | 87 | 1014.7 |
| 20260905122739 | 77 | 312 | 0.0 | 0.0 | 0.00 | 0.00 | 0.00 | 87 | 1014.3 |
| 20260905122237 | 77 | 312 | 0.0 | 0.0 | 0.00 | 0.00 | 0.00 | 87 | 1014.4 |
| 20260905121732 | 77 | 312 | 0.0 | 0.0 | 0.00 | 0.00 | 0.00 | 87 | 1014.5 |
| 20260905121233 | 77 | 312 | 0.0 | 0.0 | 0.00 | 0.00 | 0.00 | 87 | 1014.4 |
| 20260905120730 | 77 | 312 | 0.0 | 0.0 | 0.00 | 0.00 | 0.00 | 87 | 1014.6 |
| 20260905120230 | 77 | 312 | 0.0 | 0.0 | 0.00 | 0.00 | 0.00 | 87 | 1014.5 |
| 20260905115730 | 77 | 312 | 0.0 | 0.0 | 0.00 | 0.00 | 0.00 | 86 | 1014.3 |
| 20260905115504 | 77 | 312 | 0.0 | 1.7 | 0.00 | 0.00 | 0.00 | 86 | 1014.3 |
| 20260905114732 | 77 | 312 | 0.0 | 1.7 | 0.00 | 0.00 | 0.00 | 86 | 1014.1 |
| 20260905114228 | 77 | 312 | 0.0 | 0.9 | 0.00 | 0.00 | 0.00 | 86 | 1014.1 |
| 20260905113955 | 77 | 312 | 0.0 | 0.0 | 0.00 | 0.00 | 0.00 | 86 | 1014.2 |
| 20260905113228 | 77 | 312 | 0.0 | 0.0 | 0.00 | 0.00 | 0.00 | 86 | 1014.0 |
| 20260905112728 | 77 | 312 | 0.0 | 0.0 | 0.00 | 0.00 | 0.00 | 86 | 1013.8 |
| 20260905112225 | 77 | 312 | 0.0 | 1.7 | 0.00 | 0.00 | 0.00 | 86 | 1013.8 |
| 20260905111724 | 77 | 312 | 0.0 | 1.7 | 0.00 | 0.00 | 0.00 | 86 | 1014.0 |
| 20260905111224 | 77 | 312 | 0.0 | 0.0 | 0.00 | 0.00 | 0.00 | 86 | 1013.5 |
| 20260905110724 | 77 | 312 | 0.0 | 0.0 | 0.00 | 0.00 | 0.00 | 86 | 1013.3 |
| 20260905110224 | 77 | 312 | 0.0 | 0.0 | 0.00 | 0.00 | 0.00 | 86 | 1013.2 |
| 20260905105723 | 77 | 312 | 0.0 | 0.0 | 0.00 | 0.00 | 0.00 | 86 | 1013.1 |
| 20260905105223 | 77 | 312 | 0.0 | 0.0 | 0.00 | 0.00 | 0.00 | 86 | 1013.1 |
| 20260905104721 | 77 | 312 | 0.0 | 0.0 | 0.00 | 0.00 | 0.00 | 86 | 1013.1 |
| 20260905104218 | 77 | 312 | 0.0 | 0.0 | 0.00 | 0.00 | 0.00 | 86 | 1013.0 |
| 20260905103716 | 77 | 312 | 0.0 | 0.0 | 0.00 | 0.00 | 0.00 | 86 | 1012.9 |
| 20260905103446 | 77 | 312 | 0.0 | 0.0 | 0.00 | 0.00 | 0.00 | 86 | 1013.0 |
| 20260905102942 | 77 | 312 | 0.0 | 0.0 | 0.00 | 0.00 | 0.00 | 86 | 1013.0 |
| 20260905102221 | 77 | 312 | 0.0 | 0.0 | 0.00 | 0.00 | 0.00 | 86 | 1012.9 |
| 20260905101716 | 77 | 312 | 0.0 | 0.0 | 0.00 | 0.00 | 0.00 | 86 | 1013.1 |
| 20260905101231 | 77 | 312 | 0.0 | 0.0 | 0.00 | 0.00 | 0.00 | 86 | 1013.1 |
| 20260905100715 | 77 | 312 | 0.0 | 0.0 | 0.00 | 0.00 | 0.00 | 86 | 1013.1 |
| 20260905100442 | 77 | 312 | 0.0 | 0.0 | 0.00 | 0.00 | 0.00 | 86 | 1013.1 |
| 20260905095710 | 77 | 312 | 0.0 | 0.0 | 0.00 | 0.00 | 0.00 | 86 | 1013.1 |
| 20260905095209 | 77 | 312 | 0.0 | 0.0 | 0.00 | 0.00 | 0.00 | 86 | 1013.1 |
| 20260905094709 | 77 | 312 | 0.0 | 0.0 | 0.00 | 0.00 | 0.00 | 86 | 1013.1 |
| 20260905094208 | 77 | 312 | 0.0 | 0.9 | 0.00 | 0.00 | 0.00 | 86 | 1013.1 |
| 20260905093704 | 78 | 312 | 0.0 | 0.9 | 0.00 | 0.00 | 0.00 | 86 | 1013.0 |
| 20260905093205 | 78 | 312 | 0.0 | 0.0 | 0.00 | 0.00 | 0.00 | 86 | 1012.9 |
| 20260905092704 | 78 | 312 | 0.0 | 0.0 | 0.00 | 0.00 | 0.00 | 85 | 1012.9 |
| 20260905092204 | 78 | 312 | 0.0 | 0.0 | 0.00 | 0.00 | 0.00 | 86 | 1012.8 |
| 20260905091658 | 78 | 312 | 0.0 | 0.0 | 0.00 | 0.00 | 0.00 | 86 | 1012.9 |
| 20260905091157 | 78 | 312 | 0.0 | 0.9 | 0.00 | 0.00 | 0.00 | 86 | 1012.9 |
| 20260905090657 | 78 | 312 | 0.0 | 2.6 | 0.00 | 0.00 | 0.00 | 86 | 1012.9 |
| 20260905090156 | 78 | 312 | 0.0 | 2.6 | 0.00 | 0.00 | 0.00 | 86 | 1012.8 |
| 20260905085654 | 77 | 315 | 0.0 | 1.7 | 0.00 | 0.00 | 0.00 | 86 | 1012.8 |
| 20260905085413 | 77 | 315 | 0.0 | 0.0 | 0.00 | 0.00 | 0.00 | 86 | 1012.5 |
| 20260905084650 | 77 | 315 | 0.0 | 0.0 | 0.00 | 0.00 | 0.00 | 86 | 1012.4 |
| 20260905084148 | 77 | 315 | 0.0 | 0.0 | 0.00 | 0.00 | 0.00 | 86 | 1012.5 |
| 20260905083651 | 78 | 315 | 0.0 | 0.0 | 0.00 | 0.00 | 0.00 | 85 | 1012.5 |
| 20260905083146 | 78 | 315 | 0.0 | 0.0 | 0.00 | 0.00 | 0.00 | 85 | 1012.6 |
| 20260905082648 | 78 | 315 | 0.0 | 0.0 | 0.00 | 0.00 | 0.00 | 85 | 1012.5 |
| 20260905082146 | 78 | 315 | 0.0 | 0.0 | 0.00 | 0.00 | 0.00 | 85 | 1012.5 |
| 20260905081645 | 78 | 315 | 0.0 | 0.0 | 0.00 | 0.00 | 0.00 | 85 | 1012.5 |
| 20260905081138 | 78 | 315 | 0.0 | 0.0 | 0.00 | 0.00 | 0.00 | 85 | 1012.5 |
| 20260905080640 | 78 | 315 | 0.0 | 0.9 | 0.00 | 0.00 | 0.00 | 86 | 1012.5 |
| 20260905080357 | 77 | 315 | 0.0 | 0.9 | 0.00 | 0.00 | 0.00 | 85 | 1012.6 |
| 20260905075641 | 78 | 315 | 0.0 | 0.0 | 0.00 | 0.00 | 0.00 | 85 | 1012.5 |
| 20260905075139 | 78 | 315 | 0.0 | 0.0 | 0.00 | 0.00 | 0.00 | 84 | 1012.4 |
| 20260905074634 | 78 | 315 | 0.0 | 0.0 | 0.00 | 0.00 | 0.00 | 84 | 1012.5 |
| 20260905074134 | 78 | 315 | 0.0 | 0.0 | 0.00 | 0.00 | 0.00 | 84 | 1012.5 |
| 20260905073854 | 78 | 315 | 0.0 | 0.0 | 0.00 | 0.00 | 0.00 | 84 | 1012.5 |
| 20260905073132 | 78 | 315 | 0.0 | 0.0 | 0.00 | 0.00 | 0.00 | 84 | 1012.6 |
| 20260905072856 | 78 | 315 | 0.0 | 0.9 | 0.00 | 0.00 | 0.00 | 84 | 1012.8 |
| 20260905072355 | 78 | 315 | 0.0 | 0.9 | 0.00 | 0.00 | 0.00 | 83 | 1012.8 |
| 20260905071630 | 78 | 315 | 0.0 | 0.0 | 0.00 | 0.00 | 0.00 | 83 | 1012.7 |
| 20260905071130 | 78 | 315 | 0.0 | 0.0 | 0.00 | 0.00 | 0.00 | 83 | 1012.7 |
| 20260905070846 | 78 | 315 | 0.0 | 0.0 | 0.00 | 0.00 | 0.00 | 83 | 1012.8 |
| 20260905070127 | 78 | 315 | 0.0 | 0.0 | 0.00 | 0.00 | 0.00 | 84 | 1013.0 |
| 20260905065626 | 78 | 315 | 0.0 | 0.0 | 0.00 | 0.00 | 0.00 | 84 | 1012.9 |
| 20260905065125 | 78 | 315 | 0.0 | 0.0 | 0.00 | 0.00 | 0.00 | 84 | 1012.9 |
| 20260905064623 | 78 | 315 | 0.0 | 0.0 | 0.00 | 0.00 | 0.00 | 84 | 1013.0 |
| 20260905064344 | 78 | 315 | 0.0 | 0.0 | 0.00 | 0.00 | 0.00 | 84 | 1013.2 |
| 20260905063622 | 78 | 315 | 0.0 | 0.0 | 0.00 | 0.00 | 0.00 | 84 | 1013.2 |
| 20260905063115 | 78 | 315 | 0.0 | 0.0 | 0.00 | 0.00 | 0.00 | 84 | 1013.2 |
| 20260905062614 | 78 | 315 | 0.0 | 0.0 | 0.00 | 0.00 | 0.00 | 84 | 1013.3 |
| 20260905062128 | 78 | 315 | 0.0 | 0.0 | 0.00 | 0.00 | 0.00 | 84 | 1013.4 |
| 20260905061609 | 78 | 315 | 0.0 | 0.0 | 0.00 | 0.00 | 0.00 | 84 | 1013.5 |
| 20260905061123 | 78 | 315 | 0.0 | 0.0 | 0.00 | 0.00 | 0.00 | 83 | 1013.5 |
| 20260905060609 | 78 | 315 | 0.0 | 0.0 | 0.00 | 0.00 | 0.00 | 83 | 1013.5 |
| 20260905060104 | 78 | 315 | 0.0 | 0.0 | 0.00 | 0.00 | 0.00 | 84 | 1013.6 |
| 20260905055825 | 78 | 315 | 0.0 | 0.0 | 0.00 | 0.00 | 0.00 | 84 | 1013.7 |
| 20260905055101 | 78 | 315 | 0.0 | 0.0 | 0.00 | 0.00 | 0.00 | 83 | 1013.6 |
| 20260905054557 | 78 | 315 | 0.0 | 0.0 | 0.00 | 0.00 | 0.00 | 83 | 1013.6 |
| 20260905054100 | 78 | 315 | 0.0 | 0.0 | 0.00 | 0.00 | 0.00 | 83 | 1013.6 |
| 20260905053551 | 79 | 315 | 0.0 | 0.0 | 0.00 | 0.00 | 0.00 | 82 | 1013.6 |
| 20260905053312 | 79 | 315 | 0.0 | 0.0 | 0.00 | 0.00 | 0.00 | 82 | 1013.7 |
| 20260905052550 | 79 | 315 | 0.0 | 0.0 | 0.00 | 0.00 | 0.00 | 83 | 1013.7 |
| 20260905052051 | 78 | 315 | 0.0 | 0.0 | 0.00 | 0.00 | 0.00 | 83 | 1013.7 |
| 20260905051549 | 78 | 315 | 0.0 | 0.0 | 0.00 | 0.00 | 0.00 | 83 | 1013.7 |
| 20260905051308 | 78 | 315 | 0.0 | 0.0 | 0.00 | 0.00 | 0.00 | 83 | 1013.7 |
| 20260905050545 | 78 | 315 | 0.0 | 0.0 | 0.00 | 0.00 | 0.00 | 82 | 1013.7 |
| 20260905050055 | 79 | 315 | 0.0 | 0.0 | 0.00 | 0.00 | 0.00 | 82 | 1013.7 |
| 20260905045547 | 79 | 315 | 0.0 | 0.0 | 0.00 | 0.00 | 0.00 | 82 | 1013.7 |
| 20260905045036 | 79 | 315 | 0.0 | 0.0 | 0.00 | 0.00 | 0.00 | 81 | 1013.7 |
| 20260905044537 | 79 | 315 | 0.0 | 0.0 | 0.00 | 0.00 | 0.00 | 81 | 1013.8 |
| 20260905044032 | 79 | 315 | 0.0 | 0.0 | 0.00 | 0.00 | 0.00 | 81 | 1013.8 |
| 20260905043532 | 79 | 315 | 0.0 | 0.0 | 0.00 | 0.00 | 0.00 | 81 | 1013.7 |
| 20260905043034 | 79 | 315 | 0.0 | 0.0 | 0.00 | 0.00 | 0.00 | 81 | 1013.7 |
| 20260905042536 | 79 | 315 | 0.0 | 0.0 | 0.00 | 0.00 | 0.00 | 81 | 1013.7 |
| 20260905042250 | 79 | 315 | 0.0 | 0.0 | 0.00 | 0.00 | 0.00 | 81 | 1013.7 |
| 20260905041525 | 80 | 315 | 0.0 | 0.0 | 0.00 | 0.00 | 0.00 | 81 | 1013.7 |
| 20260905041023 | 80 | 315 | 0.0 | 0.0 | 0.00 | 0.00 | 0.00 | 81 | 1013.6 |
| 20260905040756 | 79 | 315 | 0.0 | 0.0 | 0.00 | 0.00 | 0.00 | 81 | 1013.7 |
| 20260905040020 | 80 | 315 | 0.0 | 0.0 | 0.00 | 0.00 | 0.00 | 81 | 1013.6 |
| 20260905035520 | 80 | 315 | 0.0 | 0.0 | 0.00 | 0.00 | 0.00 | 81 | 1013.7 |
| 20260905034512 | 80 | 315 | 0.0 | 0.0 | 0.00 | 0.00 | 0.00 | 80 | 1013.7 |
| 20260905034015 | 80 | 315 | 0.0 | 0.0 | 0.00 | 0.00 | 0.00 | 80 | 1013.7 |
| 20260905033506 | 80 | 315 | 0.0 | 0.0 | 0.00 | 0.00 | 0.00 | 79 | 1013.8 |
| 20260905033004 | 81 | 315 | 0.0 | 0.0 | 0.00 | 0.00 | 0.00 | 78 | 1013.7 |
| 20260905032509 | 81 | 315 | 0.0 | 0.0 | 0.00 | 0.00 | 0.00 | 78 | 1013.8 |
| 20260905032004 | 81 | 315 | 0.0 | 0.0 | 0.00 | 0.00 | 0.00 | 78 | 1013.8 |
| 20260905031504 | 81 | 315 | 0.0 | 0.0 | 0.00 | 0.00 | 0.00 | 78 | 1013.8 |
| 20260905031005 | 81 | 315 | 0.0 | 0.0 | 0.00 | 0.00 | 0.00 | 78 | 1013.8 |
| 20260905030720 | 81 | 315 | 0.0 | 0.0 | 0.00 | 0.00 | 0.00 | 77 | 1013.9 |
| 20260905025456 | 82 | 315 | 0.0 | 0.0 | 0.00 | 0.00 | 0.00 | 76 | 1013.9 |
| 20260905024950 | 82 | 315 | 0.0 | 0.0 | 0.00 | 0.00 | 0.00 | 77 | 1013.9 |
| 20260905024449 | 82 | 315 | 0.0 | 0.0 | 0.00 | 0.00 | 0.00 | 78 | 1013.8 |
| 20260905024213 | 82 | 315 | 0.0 | 0.0 | 0.00 | 0.00 | 0.00 | 78 | 1013.8 |
| 20260905023448 | 82 | 315 | 0.0 | 0.0 | 0.00 | 0.00 | 0.00 | 77 | 1013.7 |
| 20260905022953 | 82 | 315 | 0.0 | 0.0 | 0.00 | 0.00 | 0.00 | 77 | 1013.6 |
| 20260905022448 | 82 | 315 | 0.0 | 0.0 | 0.00 | 0.00 | 0.00 | 77 | 1013.6 |
| 20260905021951 | 82 | 315 | 0.0 | 0.0 | 0.00 | 0.00 | 0.00 | 76 | 1013.6 |
| 20260905021448 | 82 | 315 | 0.0 | 0.0 | 0.00 | 0.00 | 0.00 | 77 | 1013.6 |
| 20260905020948 | 82 | 315 | 0.0 | 0.0 | 0.00 | 0.00 | 0.00 | 76 | 1013.6 |
| 20260905020447 | 83 | 315 | 0.0 | 0.0 | 0.00 | 0.00 | 0.00 | 76 | 1013.6 |
| 20260905020210 | 83 | 315 | 0.0 | 0.0 | 0.00 | 0.00 | 0.00 | 75 | 1013.5 |
| 20260905015447 | 83 | 315 | 0.0 | 0.0 | 0.00 | 0.00 | 0.00 | 74 | 1013.5 |
| 20260905015218 | 84 | 315 | 0.0 | 0.0 | 0.00 | 0.00 | 0.00 | 73 | 1013.5 |
| 20260905014717 | 84 | 315 | 0.0 | 0.0 | 0.00 | 0.00 | 0.00 | 72 | 1013.5 |
| 20260905014210 | 85 | 315 | 0.0 | 0.0 | 0.00 | 0.00 | 0.00 | 72 | 1013.4 |
| 20260905013444 | 85 | 315 | 0.0 | 0.0 | 0.00 | 0.00 | 0.00 | 72 | 1013.4 |
| 20260905012943 | 85 | 315 | 0.0 | 0.0 | 0.00 | 0.00 | 0.00 | 72 | 1013.3 |
| 20260905012704 | 85 | 315 | 0.0 | 0.0 | 0.00 | 0.00 | 0.00 | 73 | 1013.4 |
| 20260905012158 | 84 | 315 | 0.0 | 0.0 | 0.00 | 0.00 | 0.00 | 74 | 1013.3 |
| 20260905011436 | 85 | 315 | 0.0 | 0.0 | 0.00 | 0.00 | 0.00 | 73 | 1013.2 |
| 20260905010938 | 85 | 315 | 0.0 | 0.0 | 0.00 | 0.00 | 0.00 | 73 | 1013.1 |
| 20260905010703 | 85 | 315 | 0.0 | 0.0 | 0.00 | 0.00 | 0.00 | 72 | 1013.1 |
| 20260905005937 | 86 | 315 | 0.0 | 0.0 | 0.00 | 0.00 | 0.00 | 71 | 1013.0 |
| 20260905005707 | 86 | 315 | 0.0 | 0.0 | 0.00 | 0.00 | 0.00 | 71 | 1013.0 |
| 20260905004936 | 86 | 315 | 0.0 | 0.0 | 0.00 | 0.00 | 0.00 | 71 | 1012.9 |
| 20260905004428 | 86 | 315 | 0.0 | 0.0 | 0.00 | 0.00 | 0.00 | 72 | 1012.9 |
| 20260905004148 | 87 | 315 | 0.0 | 0.0 | 0.00 | 0.00 | 0.00 | 72 | 1012.9 |
| 20260905003428 | 87 | 315 | 0.0 | 0.0 | 0.00 | 0.00 | 0.00 | 71 | 1012.8 |
| 20260905002924 | 87 | 315 | 0.0 | 0.0 | 0.00 | 0.00 | 0.00 | 70 | 1012.8 |
| 20260905002650 | 87 | 315 | 0.0 | 0.0 | 0.00 | 0.00 | 0.00 | 70 | 1012.8 |
| 20260905001924 | 88 | 315 | 0.0 | 0.0 | 0.00 | 0.00 | 0.00 | 70 | 1012.7 |
| 20260905001433 | 88 | 315 | 0.0 | 0.0 | 0.00 | 0.00 | 0.00 | 69 | 1012.6 |
| 20260905000919 | 89 | 315 | 0.0 | 0.0 | 0.00 | 0.00 | 0.00 | 67 | 1012.6 |
| 20260905000418 | 90 | 315 | 0.0 | 0.0 | 0.00 | 0.00 | 0.00 | 66 | 1012.7 |
| 20260904235914 | 91 | 315 | 0.0 | 0.0 | 0.00 | 0.00 | 0.00 | 64 | 1012.7 |
| 20260904235413 | 91 | 315 | 0.0 | 0.0 | 0.00 | 0.00 | 0.00 | 63 | 1012.7 |
| 20260904234913 | 91 | 315 | 0.0 | 0.0 | 0.00 | 0.00 | 0.00 | 63 | 1012.6 |
| 20260904234634 | 91 | 315 | 0.0 | 0.0 | 0.00 | 0.00 | 0.00 | 62 | 1012.7 |
| 20260904233910 | 92 | 315 | 0.0 | 0.0 | 0.00 | 0.00 | 0.00 | 59 | 1012.8 |
| 20260904233411 | 92 | 315 | 0.0 | 0.0 | 0.00 | 0.00 | 0.00 | 58 | 1012.8 |
| 20260904233129 | 93 | 315 | 0.0 | 0.0 | 0.00 | 0.00 | 0.00 | 54 | 1012.7 |
| 20260904232622 | 93 | 315 | 0.0 | 0.0 | 0.00 | 0.00 | 0.00 | 52 | 1012.7 |
| 20260904231906 | 94 | 315 | 0.0 | 0.0 | 0.00 | 0.00 | 0.00 | 51 | 1012.8 |
| 20260904231403 | 94 | 315 | 0.0 | 1.7 | 0.00 | 0.00 | 0.00 | 50 | 1012.8 |
| 20260904230907 | 95 | 318 | 0.0 | 1.7 | 0.00 | 0.00 | 0.00 | 51 | 1012.8 |
| 20260904230401 | 95 | 318 | 0.0 | 1.7 | 0.00 | 0.00 | 0.00 | 49 | 1012.9 |
| 20260904225902 | 96 | 318 | 0.9 | 1.7 | 0.00 | 0.00 | 0.00 | 49 | 1012.9 |
| 20260904225401 | 96 | 319 | 0.0 | 1.7 | 0.00 | 0.00 | 0.00 | 47 | 1012.9 |
| 20260904225138 | 96 | 319 | 0.0 | 2.6 | 0.00 | 0.00 | 0.00 | 46 | 1012.9 |
| 20260904224402 | 96 | 319 | 0.0 | 2.6 | 0.00 | 0.00 | 0.00 | 46 | 1012.9 |
| 20260904223900 | 96 | 320 | 0.0 | 2.6 | 0.00 | 0.00 | 0.00 | 46 | 1012.9 |
| 20260904223400 | 96 | 324 | 0.0 | 0.9 | 0.00 | 0.00 | 0.00 | 45 | 1012.9 |
| 20260904223117 | 96 | 324 | 0.0 | 2.6 | 0.00 | 0.00 | 0.00 | 45 | 1012.9 |
| 20260904222644 | 97 | 324 | 0.9 | 2.6 | 0.00 | 0.00 | 0.00 | 44 | 1012.9 |
| 20260904222113 | 97 | 294 | 0.0 | 2.6 | 0.00 | 0.00 | 0.00 | 45 | 1012.9 |
| 20260904221352 | 96 | 83 | 0.0 | 1.7 | 0.00 | 0.00 | 0.00 | 48 | 1012.9 |
| 20260904220852 | 97 | 83 | 0.9 | 3.5 | 0.00 | 0.00 | 0.00 | 45 | 1012.9 |
| 20260904220351 | 98 | 2 | 0.9 | 3.5 | 0.00 | 0.00 | 0.00 | 42 | 1012.9 |
| 20260904215855 | 98 | 338 | 0.0 | 1.7 | 0.00 | 0.00 | 0.00 | 43 | 1013.0 |
| 20260904214847 | 98 | 279 | 0.9 | 2.6 | 0.00 | 0.00 | 0.00 | 42 | 1013.0 |
| 20260904214609 | 99 | 279 | 0.9 | 2.6 | 0.00 | 0.00 | 0.00 | 45 | 1013.1 |
| 20260904213844 | 99 | 281 | 0.9 | 3.5 | 0.00 | 0.00 | 0.00 | 42 | 1013.1 |
| 20260904213345 | 99 | 278 | 0.9 | 3.5 | 0.00 | 0.00 | 0.00 | 42 | 1013.0 |
| 20260904212840 | 98 | 339 | 0.9 | 2.6 | 0.00 | 0.00 | 0.00 | 42 | 1013.0 |
| 20260904212339 | 99 | 340 | 0.9 | 2.6 | 0.00 | 0.00 | 0.00 | 41 | 1013.1 |
| 20260904211843 | 99 | 310 | 0.9 | 5.2 | 0.00 | 0.00 | 0.00 | 40 | 1013.1 |
| 20260904211334 | 100 | 296 | 0.9 | 5.2 | 0.00 | 0.00 | 0.00 | 38 | 1013.1 |
| 20260904210833 | 101 | 308 | 0.9 | 6.1 | 0.00 | 0.00 | 0.00 | 38 | 1013.1 |
| 20260904210337 | 101 | 358 | 1.7 | 6.1 | 0.00 | 0.00 | 0.00 | 39 | 1013.1 |
| 20260904205828 | 101 | 328 | 0.9 | 5.2 | 0.00 | 0.00 | 0.00 | 41 | 1013.2 |
| 20260904205326 | 101 | 322 | 0.9 | 3.5 | 0.00 | 0.00 | 0.00 | 39 | 1013.2 |